Location: Bannatyne
(13.0833°N, 59.5333°W)
Time: 07:28:25
(UTC+00:00)

Envisat - Pass Details

Date: 24 June 2021
Orbit: 764 x 766 km, 98.2° (Epoch: 03 August)

Event Time Altitude Azimuth Distance (km) Brightness Sun altitude
Rises 08:26:20 0° 28° (NNE) 3,220 7.2 -15.5°
Reaches altitude 10° 08:28:53 10° 39° (NE) 2,294 6.6 -15.0°
Maximum altitude 08:33:18 31° 100° (E) 1,322 4.8 -14.0°
Drops below altitude 10° 08:37:43 10° 161° (SSE) 2,292 5.4 -13.1°
Sets 08:40:15 0° 172° (S) 3,217 6.0 -12.5°
